This demonstration page uses our WeatherBlox Daily Observations layout. Learn more.

Left ArrowRight Arrow

Hourly Observations for August 20, 2017

Temp ( °F °C ) Dew Point ( °F °C ) Humidity (%) Winds ( mph kmh ) Pressure ( in mb ) Visibility ( mi km ) Precip ( " mm )
12:15 am 00:15 Clear 64 17.6 62 16.7 95 95 Calm 30.03 1017 10 16 0.00 0.00
12:35 am 00:35 Clear 63 17.2 62 16.6 96 96 Calm 30.03 1017 10 16 0.00 0.00
12:55 am 00:55 Partly Cloudy 63 17.2 62 16.5 96 96 Calm 30.03 1017 10 16 0.00 0.00
1:15 am 01:15 Partly Cloudy 63 17.4 62 16.6 95 95 Calm 30.03 1017 10 16 0.00 0.00
1:35 am 01:35 Partly Cloudy 63 17.3 62 16.5 95 95 Calm 30.03 1017 10 16 0.00 0.00
1:55 am 01:55 Clear 63 17.1 61 16.3 95 95 Calm 30.03 1017 10 16 0.00 0.00
2:15 am 02:15 Clear 63 17.3 62 16.5 95 95 Calm 30.03 1017 10 16 0.00 0.00
2:35 am 02:35 Clear 65 18.2 61 15.9 87 87 Calm 30.03 1017 10 16 0.00 0.00
2:55 am 02:55 Clear 63 17.1 61 15.9 93 93 Calm 30.03 1017 10 16 0.00 0.00
3:15 am 03:15 Clear 62 16.8 60 15.7 93 93 Calm 30.03 1017 10 16 0.00 0.00
3:35 am 03:35 Clear 62 16.8 60 15.6 93 93 Calm 30.03 1017 10 16 0.00 0.00
3:55 am 03:55 Clear 61 16.2 60 15.4 95 95 Calm 30.03 1017 10 16 0.00 0.00
4:15 am 04:15 Clear 60 15.8 59 15.2 96 96 Calm 30.03 1017 10 16 0.00 0.00
4:35 am 04:35 Clear 60 15.8 59 15.1 96 96 Calm 30.03 1017 10 16 0.00 0.00
4:55 am 04:55 Clear 61 15.9 60 15.3 96 96 Calm 30.03 1017 10 16 0.00 0.00
5:15 am 05:15 Clear 60 15.6 59 15.1 97 97 Calm 30.03 1017 10 16 0.00 0.00
5:35 am 05:35 Clear 60 15.5 59 15.2 98 98 Calm 30.03 1017 10 16 0.00 0.00
5:55 am 05:55 Clear 61 16 60 15.3 96 96 E 3 6 30.03 1017 10 16 0.00 0.00
6:15 am 06:15 Clear 60 15.5 59 15 97 97 E 3 6 30.03 1017 10 16 0.00 0.00
6:35 am 06:35 Clear 60 15.6 59 14.8 95 95 Calm 30.06 1018 10 16 0.00 0.00
6:55 am 06:55 Clear 62 16.6 60 15.6 94 94 Calm 30.06 1018 10 16 0.00 0.00
7:15 am 07:15 Sunny 60 15.7 59 14.9 95 95 Calm 30.06 1018 10 16 0.00 0.00
7:35 am 07:35 Sunny 61 15.9 59 15.2 96 96 Calm 30.06 1018 10 16 0.00 0.00
7:55 am 07:55 Sunny 62 16.6 61 16 96 96 Calm 30.06 1018 10 16 0.00 0.00
8:15 am 08:15 Sunny 65 18.4 63 17.2 93 93 Calm 30.06 1018 10 16 0.00 0.00
8:35 am 08:35 Sunny 67 19.6 64 17.5 88 88 Calm 30.06 1018 10 16 0.00 0.00
8:55 am 08:55 Sunny 69 20.5 65 18.2 87 87 SE 3 6 30.06 1018 10 16 0.00 0.00
9:15 am 09:15 Sunny 71 21.6 67 19.5 88 88 SSE 5 7 30.06 1018 10 16 0.00 0.00
9:35 am 09:35 Sunny 73 22.5 68 19.9 85 85 S 3 6 30.03 1017 10 16 0.00 0.00
9:55 am 09:55 Sunny 74 23.1 68 20.2 84 84 Calm 30.03 1017 10 16 0.00 0.00
10:15 am 10:15 Sunny 76 24.4 69 20.7 80 80 WSW 3 6 30.03 1017 10 16 0.00 0.00
10:35 am 10:35 Sunny 78 25.4 69 20.7 75 75 Calm 30.03 1017 10 16 0.00 0.00
10:55 am 10:55 Sunny 79 26 69 20.4 71 71 SW 3 6 30.03 1017 10 16 0.00 0.00
11:15 am 11:15 Sunny 80 26.9 70 20.9 70 70 Calm 30.03 1017 10 16 0.00 0.00
11:35 am 11:35 Sunny 81 27.2 69 20.3 66 66 SSW 3 6 30.03 1017 10 16 0.00 0.00
11:55 am 11:55 Sunny 82 27.9 68 20 62 62 Calm 30.03 1017 10 16 0.00 0.00
12:15 pm 12:15 Sunny 83 28.2 66 18.7 56 56 W 5 7 30.03 1017 10 16 0.00 0.00
12:35 pm 12:35 Sunny 84 28.7 65 18.1 53 53 SW 6 9 30.03 1017 10 16 0.00 0.00
12:55 pm 12:55 Partly Cloudy 84 28.8 66 18.8 55 55 WSW 3 6 30.03 1017 10 16 0.00 0.00
1:15 pm 13:15 Sunny 84 29.1 66 18.9 54 54 W 5 7 30.03 1017 10 16 0.00 0.00
1:35 pm 13:35 Partly Cloudy 84 28.7 65 18.4 54 54 SW 8 13 30.03 1017 10 16 0.00 0.00
1:55 pm 13:55 Partly Cloudy 84 28.9 66 18.8 54 54 SW 7 11 30.03 1017 10 16 0.00 0.00
2:15 pm 14:15 Sunny 83 28.5 66 19.1 57 57 Calm 30.03 1017 10 16 0.00 0.00
2:35 pm 14:35 Sunny 84 28.8 64 17.8 51 51 SW 3 6 30.03 1017 10 16 0.00 0.00
2:55 pm 14:55 Sunny 85 29.4 65 18.5 52 52 WSW 7 11 30.03 1017 10 16 0.00 0.00
3:15 pm 15:15 Sunny 84 29 64 17.6 50 50 WSW 6 9 30.03 1017 10 16 0.00 0.00
3:35 pm 15:35 Sunny 85 29.4 66 18.7 53 53 SSW 3 6 30.03 1017 10 16 0.00 0.00
3:55 pm 15:55 Sunny 85 29.6 63 17.4 48 48 Calm 30.03 1017 10 16 0.00 0.00
4:15 pm 16:15 Sunny 86 30.2 62 16.8 44 44 W 5 7 30.03 1017 10 16 0.00 0.00
4:35 pm 16:35 Sunny 87 30.3 64 17.6 47 47 SW 6 9 30.03 1017 10 16 0.00 0.00
4:55 pm 16:55 Sunny 86 30 64 17.6 47 47 WNW 5 7 30.03 1017 10 16 0.00 0.00
5:15 pm 17:15 Sunny 86 30.1 64 17.6 47 47 Calm 30.03 1017 10 16 0.00 0.00
5:35 pm 17:35 Sunny 86 30.2 65 18.6 50 50 W 6 9 30.03 1017 10 16 0.00 0.00
5:55 pm 17:55 Sunny 85 29.7 64 17.7 48 48 NW 5 7 30.03 1017 10 16 0.00 0.00
6:15 pm 18:15 Sunny 85 29.6 65 18.4 51 51 W 5 7 30.03 1017 10 16 0.00 0.00
6:35 pm 18:35 Sunny 84 29.1 64 18 51 51 WNW 3 6 30.03 1017 10 16 0.00 0.00
6:55 pm 18:55 undefined 85 29.2 65 18.2 52 52 Calm 30.03 1017 N/A 0.00 0.00
7:15 pm 19:15 Sunny 82 27.9 65 18.3 56 56 Calm 30.03 1017 10 16 0.00 0.00
7:35 pm 19:35 Sunny 82 27.6 68 20.1 64 64 Calm 30.03 1017 10 16 0.00 0.00
7:55 pm 19:55 Sunny 82 27.6 72 22 72 72 E 3 6 30.03 1017 10 16 0.00 0.00
8:15 pm 20:15 Sunny 79 26 71 21.4 76 76 Calm 30.03 1017 10 16 0.00 0.00
8:35 pm 20:35 Clear 77 25.1 71 21.4 80 80 Calm 30.03 1017 10 16 0.00 0.00
8:55 pm 20:55 Clear 75 23.7 69 20.6 83 83 Calm 30.03 1017 10 16 0.00 0.00
9:15 pm 21:15 Clear 73 22.7 68 20 85 85 E 3 6 30.03 1017 10 16 0.00 0.00
9:35 pm 21:35 Clear 73 22.7 66 19 80 80 Calm 30.03 1017 10 16 0.00 0.00
9:55 pm 21:55 Clear 71 21.9 66 19 84 84 Calm 30.03 1017 10 16 0.00 0.00
10:15 pm 22:15 Clear 70 21.3 67 19.6 90 90 ESE 3 6 30.06 1018 10 16 0.00 0.00
10:35 pm 22:35 Clear 69 20.7 66 19 90 90 Calm 30.06 1018 10 16 0.00 0.00
10:55 pm 22:55 Clear 70 21.1 66 18.8 87 87 Calm 30.06 1018 10 16 0.00 0.00
11:15 pm 23:15 Clear 69 20.5 66 19 91 91 Calm 30.06 1018 10 16 0.00 0.00
11:35 pm 23:35 Clear 69 20.3 66 18.8 91 91 Calm 30.06 1018 10 16 0.00 0.00
11:55 pm 23:55 Clear 68 19.9 65 18.5 92 92 E 3 6 30.06 1018 10 16 0.00 0.00

Powered by AerisWeather